Regional Weather Roundup
Issued by NWS Grand Forks, ND

Home | Current Version | Previous Version | Text Only | Print | Product List | Glossary On
Versions: 1 2 3 4 5 6 7 8 9 10 11 12 13 14 15 16 17 18 19 20 21 22 23 24 25 26 27 28 29 30 31 32 33 34 35 36 37 38 39 40 41 42 43 44 45 46 47 48 49 50
000
ASUS43 KFGF 210710
RWRFGF
PRAIRIE TO PINES  WEATHER ROUNDUP
NATIONAL WEATHER SERVICE EASTERN NORTH DAKOTA/GRAND FORKS ND
200 AM CDT TUE OCT 21 2014

 **SATELLITE DATA USED TO AUGMENT SKY COVER AT AUTOMATED STATIONS**
 *****  WEATHER ACROSS EASTERN NORTH DAKOTA  *****

CITY           SKY/WX    TMP DP  RH WIND       PRES   REMARKS
GRAND FORKS    CLEAR     41  37  86 SE9       30.05S
GRAND FRKS AFB CLEAR     39  38  97 S6        30.05S
GRAND FRKS NWS   N/A     41 N/A N/A SE16        N/A
DEVILS LAKE    CLEAR     46  37  71 SE14      29.96F
FARGO          CLEAR     45  38  76 SE12      30.05R
WAHPETON ARPT  SUNNY     41  32  70 SE7       30.07R
$$

 ***** WEATHER ACROSS CENTRAL AND WESTERN NORTH DAKOTA  *****

CITY           SKY/WX    TMP DP  RH WIND       PRES   REMARKS
BISMARCK       CLEAR     54  35  48 E13       29.90F
MINOT          CLEAR     45  34  65 E9        29.86F
JAMESTOWN      CLEAR     46  39  76 SE9       29.99S
MINOT AFB      CLEAR     44  37  74 SE10      29.86S
GARRISON         N/A     51  36  56 CALM      29.88S
WILLISTON      CLEAR     50  40  68 CALM      29.80F
DICKINSON      CLEAR     48  37  65 S12       29.82F
HETTINGER      CLEAR     47  38  71 SE8       29.85F
$$

 *****  OTHER AIRPORT OBSERVATIONS IN OUR AREA  *****

CITY           SKY/WX    TMP DP  RH WIND       PRES   REMARKS
WALHALLA       FAIR      45  41  87 S13       30.03S
GRAFTON AIRPOR FAIR      39  37  93 SE9       30.04F
VALLEY CITY AR FAIR      43  41  93 S7        30.02S
CANDO          FAIR      45  41  87 SE13      29.97S
CAVALIER APRT  FAIR      41  37  87 S8        30.04S
GWINNER        SUNNY     45  37  76 SE9       30.04S
SHEYENNE NWR     N/A     37  34  88 E5        29.95
ROLLA          FAIR      43  41  93 S13       29.96S
 ***** THE ABOVE OBSERVATIONS ARE NON NWS ARE NOT QUALITY
       CONTROLLED AND MAY MIS-REPORT RAIN FOR SNOW...
$$

  *****  WEATHER ACROSS NORTHERN MINNESOTA  *****

CITY           SKY/WX    TMP DP  RH WIND       PRES   REMARKS
FLAG ISLAND    CLEAR     43  37  81 SE16      30.11S
WARROAD        CLEAR     37  34  87 SE8       30.11F
ROSEAU         CLEAR     37  34  87 SE8       30.10R
HALLOCK        CLEAR     41  37  87 SE9       30.05F
THF RVR FALLS  CLEAR     37  36  93 SE9       30.09S
BAUDETTE       CLEAR     34  32  92 SE5       30.13R
WASKISH        CLEAR     28  28 100 CALM      30.13R
CROOKSTON      CLEAR     39  37  93 SE9       30.07F
STEPHEN NDAWN    N/A     39  37  93 SE9         N/A
GREENBUSH NDAW   N/A     37  36  93 SE6         N/A
$$
  *****  WEATHER ACROSS CENTRAL AND WEST MINNESOTA  *****

CITY           SKY/WX    TMP DP  RH WIND       PRES   REMARKS
FOSSTON        CLEAR     37  36  93 SE8       30.09S
BEMIDJI        CLEAR     36  35  96 S5        30.12R
PARK RAPIDS    CLEAR     37  35  92 E5        30.11S
ELBOW LAKE     FAIR      43  39  84 SE10      30.08S
WADENA         CLEAR     37  36  93 E5        30.11S
DETROIT LAKES  CLEAR     41  37  87 SE8       30.10S
MOORHEAD       CLEAR     45  43  93 SE7       30.07R
FERGUS FALLS   CLEAR     45  36  70 SE8       30.09S
MORRIS MN      CLEAR     39  36  87 E8        30.07S
STAPLES        CLEAR     36  34  93 CALM      30.12S
$$
  *****  WEATHER ELSEWHERE ACROSS MINNESOTA  *****

CITY           SKY/WX    TMP DP  RH WIND       PRES   REMARKS
DULUTH         CLOUDY    44  38  79 E17       30.14R
INTRNTL FALLS  CLOUDY    41  34  76 E7        30.15R
ELY            CLOUDY    39  34  81 CALM      30.16R
CLOQUET        CLOUDY    45  36  70 E7        30.13S
WHEATON        CLEAR     30  28  93 E9        30.09S WCI  22
BRAINERD       FOG       32  32 100 CALM      30.13S VSB 3/4
HIBBING        CLOUDY    43  35  73 E6        30.14R
ALEXANDRIA     CLEAR     41  38  89 E7        30.11R
SAINT CLOUD    CLEAR     38  34  85 NE3       30.12R
MINNEAPOLIS    CLEAR     42  39  89 CALM      30.12R
$$

  *****  WEATHER ACROSS SOUTH DAKOTA  *****

CITY           SKY/WX    TMP DP  RH WIND       PRES   REMARKS
SIOUX FALLS    CLEAR     41  36  82 CALM      30.06R
BROOKINGS      NOT AVBL
WATERTOWN      CLEAR     45  36  70 SE5       30.05R
HURON          CLEAR     47  35  63 SE8       30.02R
SISSETON         N/A     36  34  92 SE3       30.05R
ABERDEEN       CLEAR     43  37  79 SE6       30.01R
MITCHELL       CLEAR     44  35  70 SE6       30.03S
PIERRE         CLEAR     53  38  56 E12       29.90F
MOBRIDGE       CLEAR     57  36  45 SE14      29.88F
RAPID CITY     CLEAR     53  42  66 SE5       29.87S
$$

  *****  SOME WEATHER IN NEARBY STATES *****

CITY           SKY/WX    TMP DP  RH WIND       PRES   REMARKS
GLASGOW MT     CLEAR     49  37  63 E13       29.72S
GREAT FALLS MT CLEAR     61  34  36 S15       29.68S
CHEYENNE WY    CLEAR     41  34  76 W5        30.07S
SCOTTSBLUFF NE CLEAR     60  41  49 N5        29.99S
OMAHA NE       CLEAR     45  42  89 CALM      30.08R
DES MOINES IA  CLEAR     50  41  71 N3        30.06S
DAVENPORT IA   CLEAR     38  36  92 CALM      30.06R
CHICAGO IL     CLOUDY    51  43  74 N6        30.01R
EAU CLAIRE WI  CLEAR     37  35  92 NE6       30.10R
LA CROSSE WI   CLEAR     41  38  89 CALM      30.09R
$$

  *****  SOME NATIONAL WEATHER *****

CITY           SKY/WX    TMP DP  RH WIND       PRES   REMARKS
LA GUARDIA NY  CLOUDY    57  44  62 S5        29.92F
RALEIGH NC     CLOUDY    57  50  77 SW3       29.95F
ATLANTA GA     CLEAR     57  50  77 NW6       30.00F
NEW ORLEANS LA PTCLDY    63  55  75 CALM      30.00F
OKLAHOMA CITY  PTCLDY    63  59  87 S5        30.05S
ALBUQUERQUE NM PTCLDY    54  47  77 SE6       30.18S
SALT LAKE CITY PTCLDY    64  40  41 SE10      29.90S
LOS ANGELES CA PTCLDY    67  64  90 CALM      29.90S
BOISE ID       LGT RAIN  57  43  59 N15       29.83R
SEATTLE WA     MOCLDY    55  51  86 S7        29.81S
$$

*** WEATHER ACROSS MANITOBA...SASKATCHEWAN AND ONTARIO ***
                ***ONTARIO***

CITY           SKY/WX    TMP DP  RH WIND       PRES   REMARKS
GERALDTON      CLEAR     28  27  93 N2        30.20R
THUNDER BAY    MOCLDY    36  32  87 N5        30.21R
SIOUX LOOKOUT  CLOUDY    37  34  87 SE5       30.18S
TORONTO        CLOUDY    50  48  93 W6        29.78S
BIG TROUT LK   CLOUDY    34  30  86 SW12G17   30.17S
PICKLE LAKE    NOT AVBL
DRYDEN         CLOUDY    37  32  81 SE9       30.16S
KENORA         NOT AVBL
$$
                *** MANITOBA***

CITY           SKY/WX    TMP DP  RH WIND       PRES   REMARKS
BRANDON        CLEAR     45  41  87 SE12      29.92F
DAUPHIN        CLEAR     36  36 100 N7        29.84F FOG
ISLAND LAKE    CLOUDY    37  34  87 S9G17     30.05F
PILOT MOUND      N/A     45  39  81 SE15        N/A
THE PAS        CLEAR     43  41  93 SE20G26   29.72F
THOMPSON       PTCLDY    36  36 100 S9        29.85F
WINNIPEG       CLEAR     41  36  81 SE15      30.04F
LYNN LAKE      CLOUDY    39  37  93 S12G18    29.68F
CHURCHILL      CLOUDY    36  32  87 S21       29.88F
GILLAM         CLOUDY    36  34  93 S12G18    29.96F
$$
                ***SASKATCHEWAN***

CITY           SKY/WX    TMP DP  RH WIND       PRES   REMARKS
ESTEVAN        CLEAR     52  41  66 SE10      29.79S
KINDERSLEY     PTCLDY    46  37  71 S9        29.61R
LLOYDMINSTER   CLEAR     50  34  53 S14       29.51S
PRINCE ALBERT  CLEAR     37  36  93 E7        29.60S
REGINA         CLEAR     46  41  81 SE14      29.73S
YORKTON        CLEAR     46  39  76 S12       29.76F
N. BATTLEFORD  CLEAR     48  36  61 SE9       29.57F
LA RONGE       CLEAR     37  36  93 E5        29.57F
SASKATOON      NOT AVBL
SWIFT CURRENT  CLEAR     52  43  71 S12G17    29.67S
$$
NOTE: THESE ARE AUTOMATED STATIONS WITH LIMITED QUALITY CONTROL
      "FAIR" INDICATES FEW OR NO CLOUDS BELOW 12,000 FEET WITH NO
      SIGNIFICANT WEATHER AND/OR OBSTRUCTIONS TO VISIBILITY.
      SKY/WX - SKY CONDITION AND SIGNIFICANT WEATHER.
      TMP - AIR TEMPERATURE.    DP   - DEWPOINT TEMPERATURE.
      RH  - RELATIVE HUMIDITY.  PRES - PRESSURE.
      HX  - HEAT INDEX.         WCI  - WIND CHILL INDEX.
$


USA.gov is the U.S. government's official web portal to all federal, state and local government web resources and services.